{"data":{"norad_id":55011,"intl_designator":"2023-001C","name":"BRO-8","alt_names":[],"object_type":"PAYLOAD","status":"ACTIVE","operator":null,"country":"FR","launch_date":"2023-01-03","launch_site_code":"AFETR","launch_vehicle":null,"mission":null,"orbit_class":"UNKNOWN","rcs_meters":null,"size_class":null,"mass_kg":null,"dimensions":null,"purposes":[],"wikipedia_slug":null,"has_3d_model":false,"image_url":null,"decayed_at":null,"tle_current":{"epoch":"2026-05-25T04:03:51.553152Z","epoch_age_seconds":64009,"freshness":"FRESH","line1":"1 55011U 23001C   26145.16934668  .00031164  00000+0  60704-3 0  9993","line2":"2 55011  97.3229 210.0462 0006144 188.7942 171.3202 15.47478216188643","mean_motion":15.47478216,"eccentricity":0.0006144,"inclination_deg":97.3229,"raan_deg":210.0462,"arg_perigee_deg":188.7942,"mean_anomaly_deg":171.3202,"bstar":0.00060704,"rev_number":18864,"period_min":93.054621713654,"perigee_km":419.92674633946,"apogee_km":428.2853425925,"semimajor_km":6802.243044466,"source":"CELESTRAK","updated_at":"2026-05-25T13:37:58.809210Z"}}}